1501153200.39,37998,19.38,73392.5,5.13,1.71,1.63,0,*75
1501153201.61,37999,19.38,73390.5,5.13,1.93,1.83,0,*76
1501153202.84,38000,19.38,73388.5,5.11,2.17,2.21,0,*76
1501153204.01,38001,19.31,73388.0,5.11,2.27,2.27,0,*72
1501153205.21,38002,19.31,73388.5,5.13,2.35,2.35,0,*73
1501153206.43,38003,19.31,73390.3,5.11,2.09,1.89,0,*7B
1501153207.64,38004,19.38,73388.5,5.11,1.67,1.59,0,*7A
1501153208.86,38005,19.31,73390.3,5.11,1.59,1.47,0,*79
1501153210.08,38006,19.38,73390.5,5.11,2.01,1.93,0,*7D
1501153211.32,38007,19.38,73388.5,5.13,2.21,2.21,0,*76
1501153212.51,38008,19.38,73390.3,5.13,2.31,2.31,0,*79
1501153213.77,38009,19.38,73388.5,5.13,2.47,2.43,0,*7C
1501153215.0,38010,19.38,73390.0,5.11,2.39,2.43,0,*7F
1501153216.24,38011,19.31,73386.0,5.13,2.59,2.47,0,*7E
1501153217.44,38012,19.38,73390.8,5.13,2.35,2.35,0,*72
1501153218.66,38013,19.38,73390.5,5.13,2.31,2.25,0,*76
1501153219.88,38014,19.38,73390.3,5.13,1.83,1.71,0,*79
1501153221.13,38015,19.38,73388.3,5.13,1.51,1.37,0,*75
1501153222.35,38016,19.38,73390.8,5.11,1.71,1.47,0,*71
1501153223.57,38017,19.38,73388.5,5.11,1.71,1.55,0,*73
1501153224.77,38018,19.31,73386.5,5.11,1.89,1.79,0,*75
1501153225.99,38019,19.38,73388.0,5.11,1.67,1.59,0,*76
1501153227.16,38020,19.31,73386.5,5.11,2.27,2.27,0,*71
1501153228.38,38021,19.38,73388.5,5.11,2.21,2.21,0,*70
1501153229.62,38022,19.31,73384.5,5.13,2.05,1.97,0,*79
1501153230.84,38023,19.38,73390.5,5.11,2.21,2.21,0,*72
1501153232.04,38024,19.38,73390.3,5.11,2.27,2.21,0,*73
1501153233.28,38025,19.38,73388.8,5.13,2.25,2.25,0,*76
1501153234.5,38026,19.38,73390.8,5.11,1.89,1.71,0,*70
1501153235.74,38027,19.38,73388.8,5.13,1.93,1.93,0,*74
1501153236.97,38028,19.38,73384.8,5.11,2.39,2.43,0,*74
1501153238.17,38029,19.38,73386.8,5.13,2.35,2.35,0,*7A
1501153239.36,38030,19.38,73386.5,5.11,2.21,2.27,0,*76
1501153240.55,38031,19.31,73384.8,5.13,2.35,2.35,0,*73
1501153241.75,38032,19.31,73386.5,5.15,2.35,2.25,0,*77
1501153242.98,38033,19.38,73388.8,5.15,2.05,1.93,0,*7B
1501153244.22,38034,19.31,73384.3,5.13,2.05,1.97,0,*7E
1501153245.44,38035,19.38,73386.5,5.13,1.83,1.71,0,*7A
1501153246.69,38036,19.38,73386.3,5.13,1.97,1.85,0,*77
1501153247.94,38037,19.38,73384.0,5.13,2.13,2.05,0,*72
1501153249.16,38038,19.31,73386.3,5.13,2.43,2.31,0,*7F
1501153250.35,38039,19.38,73390.3,5.13,2.35,2.31,0,*7F
1501153251.57,38040,19.31,73386.8,5.13,2.43,2.35,0,*74
1501153252.79,38041,19.31,73386.3,5.13,2.43,2.35,0,*75
1501153254.02,38042,19.38,73386.3,5.13,2.43,2.31,0,*72
1501153255.19,38043,19.38,73388.3,5.15,2.35,2.31,0,*74
1501153256.39,38044,19.38,73384.5,5.15,2.31,2.09,0,*7C
1501153257.59,38045,19.38,73390.3,5.15,2.35,2.21,0,*73
1501153258.81,38046,19.38,73388.8,5.17,2.35,2.13,0,*73
1501153260.06,38047,19.31,73384.3,5.17,2.17,1.89,0,*72
1501153261.29,38048,19.38,73384.5,5.15,2.13,1.93,0,*70
1501153262.49,38049,19.38,73382.8,5.15,2.31,2.25,0,*7F
1501153263.71,38050,19.38,73386.0,5.17,2.39,2.27,0,*7F
1501153264.91,38051,19.31,73378.8,5.15,2.47,2.31,0,*72
1501153266.14,38052,19.38,73380.8,5.17,2.39,2.35,0,*7E
1501153267.37,38053,19.38,73384.3,5.17,2.27,2.13,0,*74
1501153268.62,38054,19.38,73384.5,5.17,2.13,1.85,0,*78
1501153269.86,38055,19.38,73384.5,5.17,1.89,1.67,0,*75
1501153271.12,38056,19.38,73386.5,5.17,2.17,2.01,0,*71
1501153272.32,38057,19.38,73388.3,5.17,2.35,2.27,0,*74
1501153273.57,38058,19.38,73384.0,5.17,2.25,2.09,0,*76
1501153274.8,38059,19.38,73384.3,5.19,2.17,1.97,0,*7C
1501153276.02,38060,19.31,73380.3,5.19,2.09,1.89,0,*76
1501153277.25,38061,19.38,73380.3,5.19,2.17,2.13,0,*78
1501153278.45,38062,19.38,73380.8,5.19,2.35,2.09,0,*70
1501153279.63,38063,19.31,73380.8,5.19,2.35,2.35,0,*7E
1501153280.8,38064,19.38,73384.5,5.19,2.35,2.35,0,*79
1501153282.03,38065,19.38,73384.3,5.19,2.25,2.09,0,*76
1501153283.24,38066,19.38,73384.3,5.19,1.97,1.79,0,*7B
1501153284.46,38067,19.38,73382.0,5.21,1.93,1.83,0,*70
1501153285.69,38068,19.38,73382.8,5.19,2.13,2.09,0,*7E
1501153286.91,38069,19.38,73382.8,5.21,2.39,2.31,0,*77
1501153288.1,38070,19.38,73380.0,5.21,2.31,2.31,0,*77
1501153289.35,38071,19.31,73378.8,5.21,2.51,2.39,0,*78
1501153290.56,38072,19.38,73384.5,5.23,2.31,2.17,0,*73
1501153291.75,38073,19.38,73380.5,5.21,2.31,2.31,0,*74
1501153293.0,38074,19.38,73380.3,5.21,2.39,2.51,0,*7D
1501153294.25,38075,19.38,73382.0,5.21,2.73,2.77,0,*76
1501153295.43,38076,19.31,73378.8,5.23,2.65,2.65,0,*73
1501153296.66,38077,19.38,73380.0,5.25,2.43,2.47,0,*70
1501153297.88,38078,19.31,73376.5,5.23,2.39,2.43,0,*70
1501153299.08,38079,19.38,73386.3,5.23,2.43,2.31,0,*79
1501153300.28,38080,19.38,73386.0,5.25,2.47,2.35,0,*79
1501153301.51,38081,19.38,73384.8,5.25,2.21,2.09,0,*77
1501153302.73,38082,19.31,73384.8,5.23,2.13,1.93,0,*73
1501153303.97,38083,19.38,73384.8,5.21,2.05,1.89,0,*7C
1501153305.22,38084,19.38,73388.0,5.21,2.17,2.05,0,*7F
1501153306.45,38085,19.38,73384.5,5.21,2.31,2.13,0,*7D
1501153307.7,38086,19.38,73388.8,5.21,2.17,2.01,0,*79
1501153308.92,38087,19.38,73386.3,5.23,2.13,1.93,0,*76
1501153310.15,38088,19.38,73380.8,5.25,2.43,2.43,0,*74
1501153311.33,38089,19.38,73382.8,5.23,2.65,2.65,0,*73
1501153312.56,38090,19.38,73386.5,5.23,2.43,2.43,0,*7B
1501153313.79,38091,19.38,73384.5,5.25,2.43,2.21,0,*78
1501153314.99,38092,19.38,73386.0,5.25,2.31,2.17,0,*7B
1501153316.2,38093,19.31,73380.3,5.25,2.05,1.83,0,*73
1501153317.4,38094,19.38,73384.0,5.25,1.97,1.83,0,*7C
1501153318.61,38095,19.38,73384.5,5.23,2.17,1.83,0,*70
1501153319.83,38096,19.38,73386.3,5.23,2.17,1.89,0,*79
1501153321.05,38097,19.31,73382.8,5.23,1.93,1.71,0,*70
1501153322.27,38098,19.38,73384.3,5.23,2.09,1.89,0,*78
1501153323.5,38099,19.38,73382.0,5.23,2.51,2.39,0,*7C
1501153324.7,38100,19.31,73380.3,5.23,2.85,2.61,0,*79
1501153325.92,38101,19.38,73380.5,5.25,2.89,2.73,0,*71
1501153327.16,38102,19.38,73386.5,5.25,3.07,2.81,0,*78
1501153328.37,38103,19.38,73386.8,5.29,2.91,2.59,0,*7E
1501153329.59,38104,19.38,73384.0,5.29,2.25,1.85,0,*74
1501153330.79,38105,19.31,73382.5,5.29,1.79,1.55,0,*72
1501153331.99,38106,19.38,73384.0,5.29,1.97,1.75,0,*73
1501153333.2,38107,19.38,73384.5,5.29,2.35,2.13,0,*7A
1501153334.42,38108,19.38,73386.3,5.29,2.47,2.21,0,*71
1501153335.65,38109,19.31,73382.0,5.29,2.39,2.13,0,*78
1501153336.88,38110,19.38,73384.0,5.31,2.27,2.09,0,*7D
1501153338.1,38111,19.38,73386.5,5.29,2.25,2.09,0,*77
1501153339.33,38112,19.38,73384.0,5.31,2.01,1.79,0,*7F
1501153340.55,38113,19.38,73384.0,5.31,1.79,1.51,0,*78
1501153341.75,38114,19.31,73378.8,5.29,2.01,1.79,0,*70
1501153342.98,38115,19.31,73378.0,5.31,2.35,2.21,0,*71
1501153344.2,38116,19.38,73382.3,5.29,2.47,2.47,0,*7E
1501153345.4,38117,19.38,73382.8,5.31,2.35,2.35,0,*76
1501153346.6,38118,19.38,73384.3,5.33,2.51,2.27,0,*7A
1501153347.86,38119,19.31,73382.8,5.35,2.43,2.25,0,*7C
1501153349.09,38120,19.38,73384.0,5.33,2.17,2.05,0,*73
1501153350.26,38121,19.31,73382.3,5.33,2.31,2.27,0,*76
1501153351.46,38122,19.38,73386.0,5.33,2.39,2.27,0,*7D
1501153352.66,38123,19.31,73382.0,5.33,2.43,2.27,0,*71
1501153353.86,38124,19.38,73384.3,5.33,2.27,2.13,0,*73
1501153355.08,38125,19.38,73386.8,5.33,2.01,1.89,0,*76
1501153356.31,38126,19.38,73386.3,5.35,2.27,2.05,0,*70
1501153357.52,38127,19.38,73384.0,5.33,1.59,1.43,0,*7C
1501153358.75,38128,19.38,73386.3,5.33,1.51,1.29,0,*77
1501153359.94,38129,19.38,73382.3,5.33,1.83,1.71,0,*74
1501153361.17,38130,19.38,73388.5,5.31,2.01,1.79,0,*7F
1501153362.41,38131,19.38,73386.5,5.31,2.09,1.97,0,*76
1501153363.64,38132,19.38,73382.8,5.33,2.39,2.39,0,*73
1501153364.88,38133,19.38,73384.0,5.33,2.51,2.51,0,*72
1501153366.1,38134,19.38,73386.3,5.33,2.43,2.43,0,*75
1501153367.33,38135,19.31,73384.3,5.33,2.25,2.13,0,*71
1501153368.55,38136,19.38,73390.0,5.33,2.05,2.01,0,*73
1501153369.78,38137,19.38,73386.3,5.33,1.55,1.33,0,*76
1501153371.01,38138,19.38,73384.0,5.33,1.71,1.51,0,*7B
1501153372.18,38139,19.31,73382.8,5.33,1.83,1.79,0,*7D
1501153373.39,38140,19.38,73384.5,5.31,1.75,1.75,0,*74
1501153374.6,38141,19.38,73386.0,5.33,1.67,1.59,0,*7A
1501153375.81,38142,19.31,73380.3,5.31,1.79,1.75,0,*7A
1501153377.06,38143,19.38,73384.8,5.31,1.97,1.97,0,*77
1501153378.3,38144,19.38,73386.3,5.31,1.97,1.89,0,*7F
1501153379.52,38145,19.38,73382.3,5.29,1.97,1.89,0,*77
1501153380.75,38146,19.38,73382.0,5.29,2.09,2.09,0,*7B
1501153381.99,38147,19.38,73384.3,5.31,2.21,2.25,0,*77
1501153383.24,38148,19.38,73380.5,5.31,2.25,2.25,0,*7C
1501153384.49,38149,19.31,73378.5,5.31,2.25,2.25,0,*7D
1501153385.72,38150,19.38,73384.5,5.29,2.09,2.13,0,*77
1501153386.92,38151,19.38,73386.0,5.31,2.27,2.35,0,*77
1501153388.15,38152,19.38,73384.8,5.31,2.27,2.25,0,*75
1501153389.37,38153,19.38,73384.0,5.29,2.21,2.21,0,*7F
1501153390.61,38154,19.38,73384.8,5.31,2.21,2.25,0,*75
1501153391.87,38155,19.31,73382.8,5.31,2.39,2.47,0,*79
1501153393.09,38156,19.38,73386.3,5.29,2.13,2.13,0,*7A
1501153394.31,38157,19.38,73384.0,5.29,2.21,2.25,0,*7F
1501153395.56,38158,19.31,73384.8,5.31,2.25,2.47,0,*79
1501153396.76,38159,19.38,73388.0,5.29,2.35,2.47,0,*70
1501153398.01,38160,19.38,73386.8,5.31,2.39,2.47,0,*7F
1501153399.27,38161,19.38,73384.8,5.31,2.39,2.39,0,*77
1501153400.47,38162,19.31,73384.0,5.31,2.27,2.35,0,*77
1501153401.7,38163,19.38,73386.5,5.31,2.47,2.61,0,*71
1501153402.93,38164,19.38,73386.3,5.31,2.61,2.69,0,*7A
1501153404.19,38165,19.38,73386.5,5.31,2.47,2.51,0,*74
1501153405.41,38166,19.38,73386.8,5.31,2.25,2.35,0,*71
1501153406.64,38167,19.31,73386.5,5.31,2.27,2.47,0,*77
1501153407.86,38168,19.38,73384.0,5.33,2.43,2.55,0,*7B
1501153409.09,38169,19.38,73386.5,5.33,2.51,2.55,0,*79
1501153410.34,38170,19.38,73386.8,5.35,2.43,2.55,0,*74
1501153411.6,38171,19.38,73388.3,5.35,2.43,2.51,0,*71
1501153412.83,38172,19.38,73384.3,5.33,2.51,2.73,0,*77
1501153414.08,38173,19.38,73384.3,5.35,2.43,2.55,0,*77
1501153415.34,38174,19.31,73386.3,5.35,2.43,2.55,0,*70
1501153416.57,38175,19.38,73386.8,5.37,2.59,2.77,0,*78
1501153417.79,38176,19.38,73388.3,5.41,2.69,2.85,0,*74
1501153419.0,38177,19.38,73388.3,5.37,2.65,2.89,0,*74
1501153420.19,38178,19.38,73386.8,5.41,2.69,2.95,0,*7B
1501153421.4,38179,19.38,73386.8,5.37,2.59,2.91,0,*7C
1501153422.57,38180,19.38,73384.5,5.41,2.61,2.91,0,*70
1501153423.77,38181,19.38,73384.5,5.41,2.61,2.85,0,*74
1501153424.99,38182,19.38,73388.8,5.41,2.39,2.59,0,*7B
1501153426.22,38183,19.38,73386.5,5.37,2.21,2.43,0,*79
1501153427.45,38184,19.38,73384.3,5.37,2.43,2.59,0,*71
1501153428.68,38185,19.38,73384.8,5.41,2.39,2.59,0,*7C
1501153429.88,38186,19.38,73388.5,5.41,2.51,2.61,0,*7A
1501153431.11,38187,19.38,73384.0,5.41,2.47,2.69,0,*74
1501153432.32,38188,19.38,73384.0,5.41,2.39,2.61,0,*7A
1501153433.51,38189,19.38,73386.5,5.41,2.35,2.69,0,*7F
1501153434.74,38190,19.38,73386.0,5.41,2.59,2.69,0,*7D
1501153435.94,38191,19.31,73384.8,5.41,2.61,2.81,0,*71
1501153437.12,38192,19.38,73384.8,5.41,2.35,2.61,0,*7D
1501153438.34,38193,19.38,73386.3,5.41,1.89,2.01,0,*7E
1501153439.52,38194,19.38,73384.5,5.37,1.75,1.83,0,*72
1501153440.74,38195,19.31,73380.3,5.41,1.89,2.09,0,*70
1501153441.96,38196,19.38,73384.3,5.41,2.21,2.25,0,*7C
1501153443.19,38197,19.31,73380.5,5.41,2.01,2.13,0,*7A
1501153444.42,38198,19.31,73380.5,5.37,2.09,2.17,0,*78
1501153445.62,38199,19.31,73382.8,5.37,2.27,2.47,0,*70
1501153446.83,38200,19.38,73386.8,5.41,2.51,2.61,0,*77
1501153448.03,38201,19.38,73384.5,5.41,2.35,2.47,0,*70
1501153449.2,38202,19.38,73386.0,5.37,2.31,2.27,0,*70
1501153450.4,38203,19.38,73386.0,5.41,2.35,2.59,0,*7D
1501153451.6,38204,19.38,73386.0,5.37,2.35,2.47,0,*74
1501153452.78,38205,19.31,73384.5,5.37,2.31,2.27,0,*77
1501153453.97,38206,19.31,73382.3,5.41,2.25,2.31,0,*77
1501153455.14,38207,19.38,73384.5,5.41,2.35,2.31,0,*77
1501153456.34,38208,19.38,73384.5,5.37,2.35,2.43,0,*7C
1501153457.57,38209,19.38,73384.8,5.37,1.97,1.85,0,*7F
1501153458.77,38210,19.38,73386.8,5.37,2.27,2.21,0,*72
1501153460.04,38211,19.38,73386.0,5.35,2.17,2.17,0,*77
1501153461.3,38212,19.38,73384.8,5.35,2.17,2.05,0,*77
1501153462.52,38213,19.31,73380.0,5.35,1.89,1.83,0,*7F
1501153463.74,38214,19.31,73382.0,5.33,1.89,1.89,0,*74
1501153465.0,38215,19.38,73380.5,5.35,2.17,2.05,0,*70
1501153466.23,38216,19.31,73380.5,5.33,2.17,2.13,0,*72
1501153467.49,38217,19.38,73384.3,5.35,2.25,2.17,0,*70
1501153468.72,38218,19.38,73384.0,5.35,2.39,2.27,0,*71
1501153469.96,38219,19.38,73386.0,5.35,1.89,1.89,0,*7F
1501153471.21,38220,19.38,73386.3,5.35,2.01,1.93,0,*7D
1501153472.41,38221,19.38,73386.5,5.33,1.89,1.83,0,*78
1501153473.61,38222,19.38,73384.8,5.33,1.93,1.83,0,*70
1501153474.81,38223,19.38,73386.5,5.33,1.93,1.79,0,*74
1501153476.03,38224,19.38,73386.8,5.33,2.13,2.05,0,*70
1501153477.26,38225,19.38,73384.5,5.33,2.39,2.43,0,*7B
1501153478.49,38226,19.38,73386.0,5.33,2.43,2.43,0,*75
1501153479.71,38227,19.31,73382.0,5.33,2.05,1.89,0,*73
1501153480.94,38228,19.38,73384.0,5.33,2.17,2.01,0,*7C
1501153482.17,38229,19.38,73386.3,5.31,2.27,2.13,0,*7F
1501153483.42,38230,19.38,73384.0,5.31,2.09,2.01,0,*78
1501153484.62,38231,19.38,73386.5,5.33,2.27,2.13,0,*74
1501153485.82,38232,19.38,73388.5,5.33,1.79,1.71,0,*78
1501153487.01,38233,19.38,73384.0,5.33,1.83,1.67,0,*7B
1501153488.19,38234,19.38,73384.0,5.33,1.83,1.79,0,*73
1501153489.41,38235,19.38,73386.8,5.33,2.05,2.01,0,*73
1501153490.63,38236,19.38,73386.0,5.33,2.25,2.25,0,*74
1501153491.83,38237,19.31,73382.5,5.31,2.35,2.35,0,*77
1501153493.06,38238,19.31,73382.5,5.31,2.35,2.25,0,*79
1501153494.28,38239,19.38,73382.8,5.31,2.27,2.25,0,*7B
1501153495.51,38240,19.31,73380.5,5.31,1.89,1.79,0,*78
1501153496.73,38241,19.38,73382.8,5.31,1.75,1.67,0,*75
1501153497.93,38242,19.38,73382.8,5.31,1.79,1.75,0,*79
1501153499.17,38243,19.38,73382.8,5.31,1.85,1.79,0,*77
1501153500.39,38244,19.38,73386.3,5.31,2.27,2.21,0,*75
1501153501.64,38245,19.38,73384.0,5.31,2.47,2.47,0,*72
1501153502.9,38246,19.38,73386.3,5.31,2.47,2.39,0,*78
1501153504.15,38247,19.38,73384.8,5.31,2.47,2.47,0,*70
1501153505.35,38248,19.38,73384.3,5.29,2.35,2.25,0,*77
1501153506.59,38249,19.31,73384.0,5.31,2.25,2.21,0,*7A
1501153507.85,38250,19.38,73386.8,5.31,1.97,1.85,0,*75
1501153509.1,38251,19.38,73384.5,5.31,1.89,1.97,0,*78
1501153510.33,38252,19.38,73382.8,5.29,1.97,1.85,0,*7E
1501153511.58,38253,19.38,73384.5,5.31,1.89,1.85,0,*79
1501153512.83,38254,19.38,73382.8,5.31,2.13,2.01,0,*71
1501153514.03,38255,19.38,73384.0,5.31,2.35,2.35,0,*73
1501153515.22,38256,19.38,73386.8,5.33,2.39,2.27,0,*7D
1501153516.43,38257,19.38,73384.8,5.33,2.27,2.17,0,*70
1501153517.66,38258,19.38,73384.5,5.33,2.51,2.43,0,*7F
1501153518.89,38259,19.31,73382.8,5.33,2.51,2.43,0,*7E
1501153520.09,38260,19.31,73382.0,5.33,2.55,2.61,0,*70
1501153521.32,38261,19.38,73386.3,5.33,2.43,2.39,0,*7B
1501153522.55,38262,19.38,73384.5,5.33,2.39,2.39,0,*75
1501153523.75,38263,19.31,73386.5,5.33,2.27,2.17,0,*77
1501153524.95,38264,19.38,73384.0,5.33,2.01,1.83,0,*7A
1501153526.18,38265,19.38,73384.8,5.33,2.05,2.05,0,*72
1501153527.4,38266,19.38,73384.5,5.33,2.05,2.05,0,*71
1501153528.62,38267,19.31,73384.5,5.33,2.25,2.25,0,*70
1501153529.82,38268,19.38,73386.0,5.33,2.25,2.27,0,*7D
1501153531.02,38269,19.38,73386.5,5.35,2.31,2.27,0,*7F
1501153532.23,38270,19.38,73384.8,5.33,2.31,2.39,0,*7E
1501153533.45,38271,19.38,73386.5,5.33,2.13,2.05,0,*70
1501153534.71,38272,19.38,73382.5,5.35,2.13,2.13,0,*72
1501153535.96,38273,19.38,73384.0,5.35,1.93,2.01,0,*7B
1501153537.19,38274,19.38,73384.0,5.33,2.13,2.17,0,*76
1501153538.42,38275,19.38,73382.0,5.33,2.17,2.43,0,*72
1501153539.68,38276,19.38,73384.0,5.35,2.17,2.39,0,*7A
1501153540.94,38277,19.38,73384.8,5.35,2.43,2.51,0,*74
1501153542.18,38278,19.31,73384.5,5.35,2.51,2.61,0,*7B
1501153543.41,38279,19.38,73390.3,5.35,2.65,2.73,0,*7E
1501153544.65,38280,19.38,73384.5,5.35,2.61,2.73,0,*7C
1501153545.9,38281,19.38,73384.3,5.35,2.73,2.77,0,*7A
1501153547.15,38282,19.38,73386.8,5.35,2.55,2.59,0,*71
1501153548.38,38283,19.38,73384.8,5.35,2.25,2.27,0,*7E
1501153549.57,38284,19.38,73384.0,5.33,2.25,2.27,0,*7F
1501153550.8,38285,19.38,73386.8,5.35,2.25,2.27,0,*78
1501153552.03,38286,19.38,73386.5,5.33,2.13,2.17,0,*7B
1501153553.27,38287,19.38,73388.0,5.35,1.89,1.93,0,*73
1501153554.5,38288,19.31,73382.8,5.33,2.01,2.01,0,*71
1501153555.72,38289,19.38,73386.3,5.33,2.05,2.05,0,*70
1501153556.95,38290,19.38,73384.0,5.33,2.01,2.01,0,*78
1501153558.17,38291,19.38,73386.8,5.33,2.05,2.13,0,*7E
1501153559.39,38292,19.31,73382.0,5.33,1.89,2.01,0,*79
1501153560.63,38293,19.38,73384.5,5.33,2.17,2.17,0,*7B
1501153561.83,38294,19.31,73384.5,5.33,2.31,2.39,0,*74
1501153563.03,38295,19.31,73384.3,5.33,2.31,2.43,0,*78
1501153564.23,38296,19.38,73386.8,5.33,2.27,2.25,0,*7C
1501153565.41,38297,19.38,73388.0,5.33,2.27,2.27,0,*7F
1501153566.64,38298,19.38,73386.3,5.33,2.39,2.43,0,*7D
1501153567.9,38299,19.31,73382.8,5.35,2.43,2.51,0,*74
1501153569.12,38300,19.38,73384.0,5.33,2.39,2.43,0,*7D
1501153570.38,38301,19.38,73386.8,5.35,2.43,2.39,0,*7A
1501153571.58,38302,19.31,73382.3,5.33,2.27,2.39,0,*7D
1501153572.82,38303,19.38,73382.3,5.35,2.31,2.51,0,*73
1501153574.05,38304,19.38,73384.0,5.35,2.27,2.39,0,*7D
1501153575.28,38305,19.38,73384.5,5.33,2.51,2.51,0,*75
1501153576.51,38306,19.38,73384.8,5.35,2.61,2.73,0,*73
1501153577.73,38307,19.31,73382.3,5.33,2.85,2.85,0,*77
1501153578.96,38308,19.38,73384.8,5.35,2.85,2.95,0,*7F
1501153580.16,38309,19.31,73382.3,5.35,2.99,2.99,0,*7F
1501153581.36,38310,19.38,73384.5,5.35,2.95,2.99,0,*7B
1501153582.62,38311,19.38,73386.3,5.35,2.89,2.89,0,*76
1501153583.87,38312,19.38,73384.8,5.35,2.73,2.77,0,*71
1501153585.07,38313,19.38,73386.8,5.41,2.77,2.91,0,*7F
1501153586.27,38314,19.38,73386.3,5.37,2.89,2.99,0,*70
1501153587.48,38315,19.31,73382.5,5.41,2.85,2.85,0,*71
1501153588.68,38316,19.38,73384.5,5.37,2.77,2.91,0,*7B
1501153589.91,38317,19.38,73386.0,5.37,2.69,2.77,0,*7D
1501153591.08,38318,19.38,73384.0,5.41,2.91,2.91,0,*7C
1501153592.26,38319,19.38,73384.5,5.41,2.61,2.61,0,*7D
1501153593.47,38320,19.31,73380.5,5.37,2.35,2.43,0,*77
1501153594.7,38321,19.31,73384.8,5.37,2.43,2.43,0,*77
1501153595.87,38322,19.38,73386.0,5.37,2.35,2.31,0,*70
1501153597.13,38323,19.38,73386.8,5.35,2.39,2.43,0,*7A
1501153598.39,38324,19.38,73390.8,5.35,2.43,2.51,0,*73
1501153599.6,38325,19.38,73384.3,5.35,2.61,2.61,0,*71
1501153600.8,38326,19.38,73384.5,5.37,2.65,2.77,0,*73
1501153602.01,38327,19.38,73386.3,5.37,2.65,2.77,0,*72
1501153603.22,38328,19.31,73382.5,5.35,2.61,2.65,0,*78
1501153604.42,38329,19.38,73390.8,5.37,2.65,2.69,0,*73
1501153605.65,38330,19.38,73384.8,5.37,2.69,2.77,0,*78
1501153606.88,38331,19.38,73386.0,5.37,2.77,2.81,0,*7F
1501153608.11,38332,19.38,73386.0,5.41,2.81,2.81,0,*74
1501153609.31,38333,19.38,73384.8,5.37,2.65,2.77,0,*77
1501153610.54,38334,19.38,73386.5,5.37,2.69,2.81,0,*75
1501153611.79,38335,19.38,73388.5,5.35,2.55,2.55,0,*70
1501153612.99,38336,19.38,73384.0,5.41,2.61,2.69,0,*78
1501153614.17,38337,19.38,73386.3,5.37,2.65,2.65,0,*70
1501153615.4,38338,19.38,73386.3,5.41,2.81,2.81,0,*7E
1501153616.63,38339,19.38,73388.0,5.37,2.89,2.89,0,*7E
1501153617.86,38340,19.38,73386.0,5.37,2.89,2.81,0,*78
1501153619.09,38341,19.38,73386.3,5.37,2.77,2.89,0,*70
1501153620.28,38342,19.38,73388.0,5.41,2.85,2.91,0,*76
1501153621.51,38343,19.38,73384.3,5.41,3.03,3.03,0,*72
1501153622.74,38344,19.31,73382.0,5.37,2.89,2.81,0,*7C
1501153623.96,38345,19.38,73386.5,5.41,2.85,2.85,0,*74
1501153625.18,38346,19.38,73384.5,5.41,2.85,2.85,0,*77
1501153626.41,38347,19.38,73384.5,5.37,2.81,2.77,0,*7E
1501153627.63,38348,19.38,73384.3,5.41,2.69,2.69,0,*79
1501153628.86,38349,19.38,73386.8,5.37,2.59,2.59,0,*79
1501153630.04,38350,19.38,73384.3,5.37,2.65,2.65,0,*71
1501153631.25,38351,19.38,73384.8,5.41,2.69,2.61,0,*79
1501153632.47,38352,19.38,73384.5,5.37,2.77,2.69,0,*7C
1501153633.68,38353,19.31,73380.5,5.37,2.91,2.89,0,*7B
1501153634.9,38354,19.31,73382.8,5.37,2.89,2.89,0,*75
1501153636.11,38355,19.38,73384.8,5.41,3.03,2.95,0,*7B
1501153637.34,38356,19.38,73384.8,5.37,3.11,3.11,0,*77
1501153638.57,38357,19.38,73382.8,5.41,3.15,3.15,0,*77
1501153639.8,38358,19.38,73386.3,5.37,3.03,3.03,0,*79
1501153641.04,38359,19.38,73384.5,5.37,3.11,3.03,0,*7B
1501153642.27,38360,19.31,73382.8,5.41,3.07,3.03,0,*77
1501153643.5,38361,19.38,73386.0,5.37,3.11,3.11,0,*73
1501153644.72,38362,19.38,73382.5,5.41,3.19,3.19,0,*71
1501153645.95,38363,19.38,73380.5,5.41,3.15,3.07,0,*73
1501153647.17,38364,19.31,73382.8,5.41,3.19,3.15,0,*7B
1501153648.4,38365,19.31,73382.8,5.41,3.23,3.15,0,*73
1501153649.6,38366,19.38,73382.3,5.37,3.29,3.19,0,*77
1501153650.8,38367,19.38,73386.0,5.41,3.33,3.29,0,*7F
1501153652.03,38368,19.38,73384.5,5.41,3.07,3.07,0,*7B
1501153653.2,38369,19.38,73384.8,5.41,2.95,2.95,0,*7A
1501153654.44,38370,19.31,73382.8,5.41,3.15,3.15,0,*72
1501153655.66,38371,19.38,73382.5,5.41,3.23,3.19,0,*7A
1501153656.88,38372,19.38,73382.3,5.41,3.19,3.19,0,*70
1501153658.1,38373,19.38,73384.0,5.41,3.23,3.19,0,*78
1501153659.3,38374,19.31,73382.8,5.41,3.07,2.95,0,*7C
1501153660.51,38375,19.38,73382.8,5.41,2.91,2.81,0,*76
1501153661.74,38376,19.31,73382.3,5.41,3.15,3.07,0,*77
1501153662.94,38377,19.38,73382.3,5.41,3.19,2.95,0,*70
1501153664.16,38378,19.38,73384.0,5.37,2.81,2.69,0,*7D
1501153665.37,38379,19.31,73380.8,5.41,2.91,2.81,0,*7A
1501153666.6,38380,19.31,73380.8,5.37,3.03,2.89,0,*7F
1501153667.78,38381,19.31,73382.3,5.41,2.91,2.91,0,*7C
1501153669.01,38382,19.38,73382.5,5.37,3.03,3.03,0,*7E
1501153670.24,38383,19.38,73380.3,5.41,3.15,3.07,0,*7D
1501153671.44,38384,19.31,73382.5,5.41,3.07,2.95,0,*73
1501153672.68,38385,19.38,73380.0,5.37,3.11,3.03,0,*7A
1501153673.9,38386,19.38,73380.3,5.41,3.19,3.15,0,*77
1501153675.13,38387,19.38,73384.3,5.41,3.23,3.07,0,*7C
1501153676.36,38388,19.38,73380.3,5.41,3.23,3.15,0,*70
1501153677.59,38389,19.31,73380.0,5.37,3.19,3.15,0,*79
1501153678.81,38390,19.38,73384.8,5.37,3.19,3.15,0,*71
1501153680.01,38391,19.38,73382.3,5.37,3.25,3.19,0,*73
1501153681.21,38392,19.31,73380.3,5.37,3.29,3.19,0,*7C
1501153682.42,38393,19.38,73380.3,5.37,3.15,2.99,0,*7B
1501153683.65,38394,19.31,73380.5,5.37,2.89,2.81,0,*71
1501153684.88,38395,19.38,73382.8,5.41,3.03,3.03,0,*79
1501153686.08,38396,19.38,73380.3,5.41,3.29,3.15,0,*75
1501153687.31,38397,19.38,73380.3,5.37,3.15,3.11,0,*7E
1501153688.54,38398,19.38,73380.3,5.41,3.23,3.23,0,*74
1501153689.72,38399,19.38,73384.5,5.37,3.25,3.29,0,*78
1501153690.95,38400,19.38,73382.5,5.37,3.15,3.15,0,*73
1501153692.18,38401,19.38,73380.8,5.37,3.19,3.15,0,*7E
1501153693.42,38402,19.38,73380.0,5.37,3.15,3.03,0,*76
1501153694.65,38403,19.38,73382.5,5.37,3.03,3.03,0,*70
1501153695.86,38404,19.38,73382.8,5.37,3.15,2.99,0,*72
1501153697.09,38405,19.31,73380.3,5.37,3.15,3.03,0,*71
1501153698.33,38406,19.38,73384.8,5.37,3.11,3.03,0,*76
1501153699.56,38407,19.38,73382.8,5.37,3.03,3.11,0,*77
1501153700.79,38408,19.38,73382.3,5.37,3.15,3.11,0,*7F
1501153702.01,38409,19.38,73384.3,5.41,3.23,3.23,0,*7B
1501153703.23,38410,19.38,73384.5,5.37,3.19,3.19,0,*72
1501153704.41,38411,19.31,73380.3,5.37,3.25,3.25,0,*73
1501153705.61,38412,19.38,73384.0,5.41,3.33,3.29,0,*7A
1501153706.84,38413,19.38,73382.8,5.41,3.41,3.45,0,*74
1501153708.07,38414,19.31,73382.5,5.37,3.37,3.41,0,*77
1501153709.25,38415,19.31,73378.5,5.37,3.25,3.29,0,*7B
1501153710.46,38416,19.38,73384.8,5.41,3.29,3.41,0,*7B
1501153711.69,38417,19.38,73386.0,5.41,3.07,3.15,0,*77
1501153712.92,38418,19.38,73382.8,5.37,3.11,3.19,0,*72
1501153714.12,38419,19.31,73382.5,5.41,3.23,3.29,0,*70
1501153715.35,38420,19.31,73382.0,5.41,3.45,3.41,0,*74
1501153716.53,38421,19.38,73386.8,5.37,3.25,3.25,0,*70
1501153717.74,38422,19.38,73380.3,5.41,3.29,3.33,0,*79
1501153718.91,38423,19.38,73382.3,5.41,3.29,3.29,0,*73
1501153720.14,38424,19.38,73382.8,5.41,3.33,3.41,0,*71
1501153721.38,38425,19.38,73386.3,5.41,3.41,3.41,0,*75
1501153722.61,38426,19.31,73382.8,5.41,3.41,3.41,0,*76
1501153723.81,38427,19.38,73386.0,5.41,3.29,3.23,0,*7D
1501153725.03,38428,19.38,73380.5,5.41,3.37,3.33,0,*7C
1501153726.26,38429,19.38,73380.5,5.41,3.33,3.33,0,*79
1501153727.46,38430,19.38,73382.8,5.41,3.29,3.33,0,*7A
1501153728.69,38431,19.38,73384.0,5.41,3.23,3.33,0,*71
1501153729.87,38432,19.31,73380.5,5.41,3.29,3.29,0,*73
1501153731.1,38433,19.38,73382.3,5.41,3.41,3.45,0,*76
1501153732.33,38434,19.38,73384.0,5.41,3.41,3.45,0,*71